NORTHEAST SUFFOLK  -  Winter Weather Advisory Winter Weather Advisory        NORTHERN NASSAU  -  Winter Weather Advisory Winter Weather Advisory        NORTHWEST SUFFOLK  -  Winter Weather Advisory Winter Weather Advisory        SOUTHEAST SUFFOLK  -  Winter Weather Advisory Winter Weather Advisory        SOUTHERN NASSAU  -  Winter Weather Advisory Winter Weather Advisory        SOUTHWEST SUFFOLK  -  Winter Weather Advisory Winter Weather Advisory      

Active alerts

Northern Nassau
  Details for Northern Nassau Winter Weather Advisory
Southern Nassau
  Details for Southern Nassau Winter Weather Advisory
Northwest Suffolk
  Details for Northwest Suffolk Winter Weather Advisory
Southwest Suffolk
  Details for Southwest Suffolk Winter Weather Advisory
Northeast Suffolk
  Details for Northeast Suffolk Winter Weather Advisory
Southeast Suffolk
  Details for Southeast Suffolk Winter Weather Advisory


WXM80 ListenWXM80 Stop

You find our weather info also at:

UK Metoffice

WeatherCloud

Weather Underground

Northeastern Weather Network

AWEKAS

Citizen Weather Observer Program (CWOP)

HAMweather, WeatherForYou, PWS Weather


Weather Underground History page Text

Daily Summary for September 13, 2016 Units:  English    Metric   Both
« Previous Day
Next Day »
Daily Weekly Monthly Yearly Custom
  High: Low: Average:
Temperature: 83.7 °F 57.3 °F 69 °F
Dew Point: 65.1 °F 54.7 °F 60.4 °F
Humidity: 98 % 48 % 76 %
Wind Speed: 7.2 mph 0.0 mph 1.2 mph
Wind Gust: 12.0 mph - -
Wind:- - SSW
Pressure: 30.22 in 30.07 in -
Precipitation: 0.00 in    
Historical Graphs
 
 
Tabular Data for September 13, 2016
Time Temperature Dew Point Pressure Wind Wind Speed Wind Gust Humidity Rainfall Rate (Hourly)
00:03 60.9 °F 55.4 °F 30.18 in Calm     82 % 0.00 in
00:08 60.7 °F 55.5 °F 30.18 in Calm     83 % 0.00 in
00:13 60.5 °F 55.6 °F 30.18 in Calm     84 % 0.00 in
00:18 60.3 °F 55.4 °F 30.18 in Calm     84 % 0.00 in
00:23 60.2 °F 55.3 °F 30.18 in Calm     84 % 0.00 in
00:28 60.0 °F 55.2 °F 30.18 in Calm     84 % 0.00 in
00:33 59.8 °F 55.3 °F 30.18 in Calm     85 % 0.00 in
00:39 59.7 °F 55.2 °F 30.18 in Calm     85 % 0.00 in
00:49 59.4 °F 55.2 °F 30.18 in Calm     86 % 0.00 in
00:54 59.3 °F 55.4 °F 30.18 in Calm     87 % 0.00 in
00:59 59.1 °F 55.2 °F 30.18 in Calm     87 % 0.00 in
01:04 59.1 °F 55.2 °F 30.18 in Calm     87 % 0.00 in
01:09 58.9 °F 55.0 °F 30.18 in Calm     87 % 0.00 in
01:14 58.9 °F 55.0 °F 30.18 in Calm     87 % 0.00 in
01:19 58.8 °F 54.9 °F 30.18 in Calm     87 % 0.00 in
01:24 58.7 °F 54.8 °F 30.18 in Calm     87 % 0.00 in
01:30 58.6 °F 55.1 °F 30.18 in SW 0.2 mph 1.2 mph 88 % 0.00 in
01:35 58.5 °F 55.0 °F 30.18 in SW 0.1 mph 2.3 mph 88 % 0.00 in
01:40 58.5 °F 55.3 °F 30.18 in Calm   1.2 mph 89 % 0.00 in
01:45 58.5 °F 55.3 °F 30.18 in SW 0.1 mph 1.2 mph 89 % 0.00 in
01:50 58.4 °F 55.2 °F 30.18 in SW 0.1 mph 1.2 mph 89 % 0.00 in
01:55 58.4 °F 55.2 °F 30.18 in Calm     89 % 0.00 in
02:00 58.3 °F 55.1 °F 30.18 in Calm     89 % 0.00 in
02:05 58.2 °F 55.0 °F 30.18 in Calm     89 % 0.00 in
02:10 58.2 °F 55.0 °F 30.18 in Calm     89 % 0.00 in
02:15 58.1 °F 54.9 °F 30.18 in Calm     89 % 0.00 in
02:21 58.0 °F 54.8 °F 30.19 in Calm     89 % 0.00 in
02:26 58.0 °F 54.7 °F 30.19 in Calm     89 % 0.00 in
02:30 57.9 °F 55.0 °F 30.18 in Calm     90 % 0.00 in
02:36 57.8 °F 54.9 °F 30.19 in Calm     90 % 0.00 in
02:40 57.8 °F 54.9 °F 30.19 in Calm     90 % 0.00 in
02:45 57.7 °F 54.8 °F 30.19 in Calm     90 % 0.00 in
02:51 57.7 °F 54.8 °F 30.18 in Calm     90 % 0.00 in
02:56 57.7 °F 54.8 °F 30.18 in Calm   1.0 mph 90 % 0.00 in
03:01 57.6 °F 55.0 °F 30.18 in Calm     91 % 0.00 in
03:06 57.6 °F 55.0 °F 30.19 in Calm     91 % 0.00 in
03:11 57.6 °F 55.0 °F 30.18 in Calm     91 % 0.00 in
03:16 57.5 °F 54.9 °F 30.18 in Calm     91 % 0.00 in
03:31 57.5 °F 55.2 °F 30.18 in Calm     92 % 0.00 in
03:36 57.4 °F 55.1 °F 30.18 in Calm     92 % 0.00 in
03:41 57.4 °F 55.1 °F 30.18 in Calm     92 % 0.00 in
03:47 57.4 °F 55.1 °F 30.19 in Calm     92 % 0.00 in
03:52 57.4 °F 55.1 °F 30.18 in Calm     92 % 0.00 in
03:57 57.4 °F 55.1 °F 30.18 in Calm     92 % 0.00 in
04:02 57.4 °F 55.4 °F 30.18 in Calm     93 % 0.00 in
04:07 57.4 °F 55.4 °F 30.19 in Calm     93 % 0.00 in
04:12 57.4 °F 55.4 °F 30.19 in SW 0.1 mph   93 % 0.00 in
04:17 57.5 °F 55.5 °F 30.19 in Calm     93 % 0.00 in
04:22 57.5 °F 55.5 °F 30.19 in Calm     93 % 0.00 in
04:27 57.5 °F 55.5 °F 30.19 in Calm     93 % 0.00 in
04:32 57.5 °F 55.5 °F 30.20 in Calm     93 % 0.00 in
04:38 57.4 °F 55.4 °F 30.20 in Calm     93 % 0.00 in
04:43 57.4 °F 55.4 °F 30.20 in Calm   1.2 mph 93 % 0.00 in
04:48 57.4 °F 55.4 °F 30.20 in Calm     93 % 0.00 in
04:53 57.4 °F 55.7 °F 30.20 in Calm   1.2 mph 94 % 0.00 in
04:58 57.5 °F 55.8 °F 30.19 in SW 0.2 mph 1.2 mph 94 % 0.00 in
05:03 57.5 °F 55.8 °F 30.20 in Calm     94 % 0.00 in
05:08 57.5 °F 55.8 °F 30.20 in Calm     94 % 0.00 in
05:13 57.5 °F 55.8 °F 30.20 in Calm   1.2 mph 94 % 0.00 in
05:18 57.5 °F 55.8 °F 30.20 in SW 0.1 mph 1.2 mph 94 % 0.00 in
05:23 57.5 °F 55.8 °F 30.20 in Calm     94 % 0.00 in
05:29 57.5 °F 55.8 °F 30.20 in Calm     94 % 0.00 in
05:34 57.5 °F 55.8 °F 30.20 in Calm     94 % 0.00 in
05:39 57.5 °F 55.8 °F 30.20 in Calm     94 % 0.00 in
05:44 57.5 °F 55.8 °F 30.20 in Calm     94 % 0.00 in
05:49 57.5 °F 55.8 °F 30.20 in Calm     94 % 0.00 in
05:54 57.5 °F 56.1 °F 30.20 in SW 0.2 mph 1.2 mph 95 % 0.00 in
05:59 57.5 °F 56.1 °F 30.20 in Calm     95 % 0.00 in
06:04 57.5 °F 55.8 °F 30.20 in Calm     94 % 0.00 in
06:09 57.4 °F 55.7 °F 30.21 in Calm     94 % 0.00 in
06:14 57.3 °F 55.6 °F 30.20 in Calm     94 % 0.00 in
06:19 57.3 °F 55.6 °F 30.20 in Calm     94 % 0.00 in
06:25 57.3 °F 55.6 °F 30.21 in Calm   1.0 mph 94 % 0.00 in
06:30 57.3 °F 55.6 °F 30.21 in Calm     94 % 0.00 in
06:35 57.3 °F 55.9 °F 30.21 in SW 0.1 mph 1.2 mph 95 % 0.00 in
06:40 57.3 °F 55.9 °F 30.21 in Calm   1.2 mph 95 % 0.00 in
06:45 57.4 °F 56.0 °F 30.22 in Calm   1.2 mph 95 % 0.00 in
06:50 57.4 °F 56.0 °F 30.22 in Calm     95 % 0.00 in
06:55 57.5 °F 56.1 °F 30.21 in SW 0.2 mph 1.2 mph 95 % 0.00 in
07:00 57.5 °F 56.1 °F 30.22 in Calm     95 % 0.00 in
07:05 57.5 °F 56.1 °F 30.22 in Calm     95 % 0.00 in
07:11 57.5 °F 56.1 °F 30.21 in Calm     95 % 0.00 in
07:16 57.6 °F 56.2 °F 30.21 in Calm     95 % 0.00 in
07:21 57.6 °F 56.2 °F 30.21 in Calm     95 % 0.00 in
07:26 57.7 °F 56.3 °F 30.21 in Calm     95 % 0.00 in
07:31 57.9 °F 56.8 °F 30.21 in Calm     96 % 0.00 in
07:36 58.1 °F 57.0 °F 30.21 in Calm     96 % 0.00 in
07:41 58.4 °F 57.2 °F 30.22 in Calm     96 % 0.00 in
07:46 58.7 °F 57.9 °F 30.22 in SW 0.3 mph 2.3 mph 97 % 0.00 in
07:51 59.2 °F 58.3 °F 30.22 in SW 0.5 mph 1.2 mph 97 % 0.00 in
07:56 59.6 °F 58.8 °F 30.22 in Calm   2.0 mph 97 % 0.00 in
08:01 60.0 °F 59.1 °F 30.22 in SW 0.6 mph 2.0 mph 97 % 0.00 in
08:06 60.4 °F 59.5 °F 30.21 in Calm   3.0 mph 97 % 0.00 in
08:11 60.7 °F 59.9 °F 30.22 in SW 1.0 mph 3.0 mph 97 % 0.00 in
08:16 61.1 °F 60.2 °F 30.21 in SW 1.4 mph 2.3 mph 97 % 0.00 in
08:21 61.3 °F 60.4 °F 30.21 in SW 2.0 mph 3.0 mph 97 % 0.00 in
08:26 61.6 °F 61.0 °F 30.21 in SW 1.0 mph 3.0 mph 98 % 0.00 in
08:31 61.9 °F 61.0 °F 30.21 in SW 0.7 mph 2.3 mph 97 % 0.00 in
08:36 62.2 °F 61.6 °F 30.21 in SW 1.0 mph 3.0 mph 98 % 0.00 in
08:41 62.5 °F 61.6 °F 30.21 in SW 1.0 mph 4.0 mph 97 % 0.00 in
08:46 62.8 °F 62.2 °F 30.21 in SW 1.9 mph 3.5 mph 98 % 0.00 in
08:56 63.3 °F 62.4 °F 30.21 in WSW 1.8 mph 3.0 mph 97 % 0.00 in
09:01 63.7 °F 62.5 °F 30.21 in WSW 0.6 mph 2.3 mph 96 % 0.00 in
09:06 64.1 °F 62.6 °F 30.21 in WSW 4.0 mph 5.8 mph 95 % 0.00 in
09:11 64.5 °F 62.7 °F 30.21 in SSW 2.7 mph 3.5 mph 94 % 0.00 in
09:16 65.0 °F 62.6 °F 30.21 in SW 2.3 mph 3.5 mph 92 % 0.00 in
09:21 65.5 °F 62.8 °F 30.21 in SW 1.9 mph 3.5 mph 91 % 0.00 in
09:26 66.1 °F 62.8 °F 30.21 in SW 3.7 mph 6.9 mph 89 % 0.00 in
09:31 66.6 °F 62.9 °F 30.21 in WSW 2.0 mph 3.5 mph 88 % 0.00 in
09:36 67.0 °F 63.0 °F 30.22 in SW 1.0 mph 2.0 mph 87 % 0.00 in
09:41 67.5 °F 62.8 °F 30.21 in ESE 1.1 mph 1.2 mph 85 % 0.00 in
09:46 68.2 °F 62.8 °F 30.21 in WSW 3.4 mph 5.8 mph 83 % 0.00 in
09:52 69.0 °F 63.3 °F 30.21 in WSW 4.3 mph 4.6 mph 82 % 0.00 in
09:57 69.6 °F 62.8 °F 30.21 in West 1.8 mph 4.6 mph 79 % 0.00 in
10:02 70.1 °F 62.6 °F 30.20 in SW 2.8 mph 6.9 mph 77 % 0.00 in
10:07 70.5 °F 61.8 °F 30.20 in SW 1.6 mph 5.8 mph 74 % 0.00 in
10:12 70.9 °F 61.8 °F 30.20 in WSW 1.8 mph 4.6 mph 73 % 0.00 in
10:17 71.3 °F 62.2 °F 30.20 in SW 0.8 mph 3.5 mph 73 % 0.00 in
10:22 71.8 °F 61.5 °F 30.19 in SW 3.3 mph 8.0 mph 70 % 0.00 in
10:27 72.1 °F 61.8 °F 30.19 in SW 4.1 mph 5.0 mph 70 % 0.00 in
10:32 72.4 °F 62.1 °F 30.20 in SW 1.5 mph 3.5 mph 70 % 0.00 in
10:37 72.8 °F 62.0 °F 30.19 in WSW 2.5 mph 4.6 mph 69 % 0.00 in
10:43 73.3 °F 62.5 °F 30.19 in West 1.8 mph 3.0 mph 69 % 0.00 in
10:48 73.8 °F 62.2 °F 30.19 in SW 0.8 mph 3.5 mph 67 % 0.00 in
10:53 74.3 °F 62.2 °F 30.19 in SW 1.7 mph 3.5 mph 66 % 0.00 in
10:58 74.6 °F 62.9 °F 30.19 in WSW 3.5 mph 7.0 mph 67 % 0.00 in
11:03 75.0 °F 62.0 °F 30.19 in WSW 4.6 mph 8.1 mph 64 % 0.00 in
11:08 75.4 °F 62.4 °F 30.19 in WSW 4.6 mph 9.2 mph 64 % 0.00 in
11:13 76.1 °F 63.0 °F 30.18 in WSW 1.1 mph 6.0 mph 64 % 0.00 in
11:18 76.9 °F 62.9 °F 30.18 in SW 3.5 mph 6.0 mph 62 % 0.00 in
11:23 77.7 °F 62.7 °F 30.18 in SW 3.1 mph 9.2 mph 60 % 0.00 in
11:28 78.5 °F 63.5 °F 30.18 in SW 3.1 mph 5.8 mph 60 % 0.00 in
11:34 78.9 °F 62.9 °F 30.17 in SW 1.1 mph 3.5 mph 58 % 0.00 in
11:39 79.3 °F 63.2 °F 30.18 in West 2.7 mph 6.9 mph 58 % 0.00 in
11:44 80.0 °F 63.9 °F 30.18 in SSW 2.6 mph 5.0 mph 58 % 0.00 in
11:49 80.3 °F 62.1 °F 30.18 in SW 1.5 mph 3.5 mph 54 % 0.00 in
11:54 80.7 °F 63.0 °F 30.17 in SW 2.2 mph 8.1 mph 55 % 0.00 in
11:59 81.2 °F 64.0 °F 30.17 in WSW 1.9 mph 7.0 mph 56 % 0.00 in
12:04 81.6 °F 63.3 °F 30.17 in WSW 4.8 mph 10.4 mph 54 % 0.00 in
12:09 81.9 °F 64.1 °F 30.17 in SW 3.9 mph 5.8 mph 55 % 0.00 in
12:14 82.2 °F 64.4 °F 30.17 in WSW 3.4 mph 6.9 mph 55 % 0.00 in
12:19 82.6 °F 63.2 °F 30.16 in WSW 5.2 mph 8.1 mph 52 % 0.00 in
12:25 82.8 °F 61.7 °F 30.17 in SW 0.5 mph 4.6 mph 49 % 0.00 in
12:30 82.8 °F 63.9 °F 30.16 in WNW 0.9 mph 3.5 mph 53 % 0.00 in
12:35 82.9 °F 63.5 °F 30.16 in WSW 2.1 mph 6.9 mph 52 % 0.00 in
12:40 83.3 °F 63.8 °F 30.16 in West 1.1 mph 3.5 mph 52 % 0.00 in
12:45 83.6 °F 63.0 °F 30.16 in West 2.6 mph 4.6 mph 50 % 0.00 in
12:50 83.5 °F 62.9 °F 30.16 in West 1.7 mph 3.5 mph 50 % 0.00 in
12:55 83.1 °F 62.0 °F 30.15 in SW 2.3 mph 8.1 mph 49 % 0.00 in
13:00 82.9 °F 61.8 °F 30.15 in SE 2.6 mph 6.9 mph 49 % 0.00 in
13:05 82.9 °F 63.5 °F 30.15 in SSE 1.9 mph 5.8 mph 52 % 0.00 in
13:10 82.6 °F 62.6 °F 30.15 in SW 2.7 mph 4.0 mph 51 % 0.00 in
13:16 82.4 °F 62.5 °F 30.15 in SW 2.0 mph 7.0 mph 51 % 0.00 in
13:21 82.5 °F 64.2 °F 30.14 in SW 2.0 mph 8.0 mph 54 % 0.00 in
13:26 82.2 °F 62.8 °F 30.14 in South 2.0 mph 8.0 mph 52 % 0.00 in
13:31 82.4 °F 61.9 °F 30.14 in SW 1.0 mph 10.0 mph 50 % 0.00 in
13:36 82.7 °F 62.2 °F 30.14 in West 5.1 mph 11.5 mph 50 % 0.00 in
13:41 83.0 °F 63.0 °F 30.14 in SW 2.0 mph 12.0 mph 51 % 0.00 in
13:46 83.3 °F 62.2 °F 30.14 in SW 5.0 mph 9.0 mph 49 % 0.00 in
13:51 83.6 °F 61.9 °F 30.13 in SSW 3.0 mph 6.0 mph 48 % 0.00 in
13:56 83.7 °F 63.7 °F 30.13 in SW 1.0 mph 10.0 mph 51 % 0.00 in
14:01 83.6 °F 63.0 °F 30.13 in SE 2.9 mph 6.0 mph 50 % 0.00 in
14:06 83.0 °F 61.8 °F 30.13 in SSW 3.0 mph 9.0 mph 49 % 0.00 in
14:11 82.3 °F 61.8 °F 30.13 in South 1.0 mph 8.0 mph 50 % 0.00 in
14:16 82.0 °F 62.1 °F 30.12 in South 1.0 mph 5.0 mph 51 % 0.00 in
14:21 82.1 °F 63.8 °F 30.12 in SW 2.0 mph 6.0 mph 54 % 0.00 in
14:26 82.4 °F 63.0 °F 30.12 in SSW 1.0 mph 5.0 mph 52 % 0.00 in
14:31 82.5 °F 63.1 °F 30.11 in SW 1.0 mph 7.0 mph 52 % 0.00 in
14:36 82.6 °F 62.1 °F 30.11 in SSW 1.0 mph 7.0 mph 50 % 0.00 in
14:41 82.5 °F 62.6 °F 30.11 in SSE 2.0 mph 7.0 mph 51 % 0.00 in
14:46 82.1 °F 63.3 °F 30.11 in Calm   8.0 mph 53 % 0.00 in
14:51 82.4 °F 65.1 °F 30.11 in WSW 1.2 mph 10.0 mph 56 % 0.00 in
14:56 82.6 °F 63.2 °F 30.11 in South 2.0 mph 12.0 mph 52 % 0.00 in
15:01 82.3 °F 63.5 °F 30.11 in SSW 0.7 mph 3.5 mph 53 % 0.00 in
15:06 82.0 °F 63.2 °F 30.11 in South 2.0 mph 9.0 mph 53 % 0.00 in
15:11 82.0 °F 64.2 °F 30.10 in SSW 1.4 mph 5.8 mph 55 % 0.00 in
15:16 82.0 °F 63.7 °F 30.10 in SSW 2.1 mph 3.5 mph 54 % 0.00 in
15:21 81.7 °F 64.0 °F 30.10 in SSW 2.2 mph 5.0 mph 55 % 0.00 in
15:26 81.8 °F 65.1 °F 30.10 in SSW 1.5 mph 5.8 mph 57 % 0.00 in
15:31 81.8 °F 64.1 °F 30.10 in South 1.8 mph 8.1 mph 55 % 0.00 in
15:41 80.9 °F 64.2 °F 30.10 in SSE 0.3 mph 5.8 mph 57 % 0.00 in
15:46 80.9 °F 64.7 °F 30.10 in SW 3.6 mph 6.9 mph 58 % 0.00 in
15:51 81.0 °F 64.3 °F 30.10 in SSE 7.2 mph 9.0 mph 57 % 0.00 in
15:57 80.7 °F 64.5 °F 30.10 in SSE 0.2 mph 3.5 mph 58 % 0.00 in
16:02 80.8 °F 64.6 °F 30.09 in SW 4.6 mph 9.2 mph 58 % 0.00 in
16:07 80.7 °F 65.0 °F 30.09 in South 2.2 mph 4.6 mph 59 % 0.00 in
16:12 80.6 °F 64.5 °F 30.09 in SSE 2.4 mph 3.5 mph 58 % 0.00 in
16:17 80.1 °F 63.5 °F 30.09 in SSE 0.8 mph 2.3 mph 57 % 0.00 in
16:22 79.7 °F 63.1 °F 30.09 in SSE 2.0 mph 4.6 mph 57 % 0.00 in
16:27 79.6 °F 63.5 °F 30.08 in SE 1.1 mph 5.8 mph 58 % 0.00 in
16:32 79.2 °F 63.6 °F 30.08 in SE 0.4 mph 1.2 mph 59 % 0.00 in
16:37 79.2 °F 63.1 °F 30.08 in SE 1.9 mph 2.0 mph 58 % 0.00 in
16:42 79.0 °F 63.0 °F 30.08 in SW 3.1 mph 8.0 mph 58 % 0.00 in
16:48 79.0 °F 63.0 °F 30.08 in South 0.6 mph 2.3 mph 58 % 0.00 in
16:53 79.0 °F 63.4 °F 30.08 in SSW 2.8 mph 4.0 mph 59 % 0.00 in
16:58 78.8 °F 62.8 °F 30.08 in SSE 0.8 mph 2.3 mph 58 % 0.00 in
17:03 78.6 °F 63.6 °F 30.08 in SE 0.4 mph 1.2 mph 60 % 0.00 in
17:08 78.5 °F 63.0 °F 30.08 in SE 2.2 mph 6.9 mph 59 % 0.00 in
17:13 78.2 °F 62.7 °F 30.08 in South 1.1 mph 3.5 mph 59 % 0.00 in
17:18 77.9 °F 62.9 °F 30.08 in SSW 1.6 mph 3.5 mph 60 % 0.00 in
17:23 77.5 °F 62.5 °F 30.08 in SSW 2.6 mph 6.9 mph 60 % 0.00 in
17:28 77.3 °F 62.3 °F 30.08 in SSW 2.5 mph 5.8 mph 60 % 0.00 in
17:33 77.0 °F 62.0 °F 30.08 in SW 3.2 mph 7.0 mph 60 % 0.00 in
17:39 76.5 °F 62.5 °F 30.08 in SE 1.3 mph 9.0 mph 62 % 0.00 in
17:44 76.0 °F 62.5 °F 30.08 in SSE 0.4 mph 11.5 mph 63 % 0.00 in
17:49 75.8 °F 62.3 °F 30.08 in South 0.4 mph 8.1 mph 63 % 0.00 in
17:54 75.4 °F 62.4 °F 30.08 in SSW 1.4 mph 3.5 mph 64 % 0.00 in
17:59 75.1 °F 62.1 °F 30.08 in SE 0.5 mph 2.3 mph 64 % 0.00 in
18:04 74.9 °F 61.9 °F 30.08 in SSW 2.6 mph 5.8 mph 64 % 0.00 in
18:09 74.7 °F 62.1 °F 30.08 in SSE 0.3 mph 2.3 mph 65 % 0.00 in
18:14 74.4 °F 61.9 °F 30.08 in South 2.9 mph 8.1 mph 65 % 0.00 in
18:19 74.2 °F 62.1 °F 30.08 in SSW 3.6 mph 11.5 mph 66 % 0.00 in
18:24 73.9 °F 62.2 °F 30.08 in East 1.8 mph 3.5 mph 67 % 0.00 in
18:30 73.7 °F 62.1 °F 30.08 in SE 1.9 mph 5.8 mph 67 % 0.00 in
18:35 73.5 °F 62.3 °F 30.08 in SSE 1.6 mph 3.5 mph 68 % 0.00 in
18:40 73.3 °F 62.1 °F 30.08 in SSE 0.1 mph 3.5 mph 68 % 0.00 in
18:45 73.1 °F 62.3 °F 30.08 in SSE 2.6 mph 7.0 mph 69 % 0.00 in
18:50 72.9 °F 62.1 °F 30.07 in SSW 1.8 mph 3.5 mph 69 % 0.00 in
18:55 72.6 °F 61.8 °F 30.08 in South 1.4 mph 3.5 mph 69 % 0.00 in
19:00 72.5 °F 62.2 °F 30.08 in SSE 1.0 mph 3.5 mph 70 % 0.00 in
19:05 72.3 °F 62.0 °F 30.08 in SSW 1.9 mph 5.8 mph 70 % 0.00 in
19:10 72.1 °F 61.8 °F 30.08 in SE 0.5 mph 3.5 mph 70 % 0.00 in
19:15 71.9 °F 61.6 °F 30.08 in SSE 0.6 mph 3.5 mph 70 % 0.00 in
19:21 71.8 °F 61.9 °F 30.08 in SSE 2.0 mph 6.0 mph 71 % 0.00 in
19:26 71.6 °F 62.1 °F 30.07 in SSE 1.5 mph 5.8 mph 72 % 0.00 in
19:31 71.5 °F 62.4 °F 30.08 in SSE 1.0 mph 4.0 mph 73 % 0.00 in
19:36 71.3 °F 62.2 °F 30.08 in SSW 0.1 mph 2.3 mph 73 % 0.00 in
19:41 71.2 °F 62.5 °F 30.08 in SSE 1.8 mph 3.5 mph 74 % 0.00 in
19:46 71.1 °F 62.4 °F 30.08 in South 0.9 mph 2.3 mph 74 % 0.00 in
19:56 70.9 °F 62.6 °F 30.08 in South 1.5 mph 3.5 mph 75 % 0.00 in
20:01 70.8 °F 62.5 °F 30.08 in South 1.7 mph 3.5 mph 75 % 0.00 in
20:06 70.7 °F 62.8 °F 30.08 in SSE 0.9 mph 3.5 mph 76 % 0.00 in
20:11 70.7 °F 62.8 °F 30.08 in SSE 2.3 mph 5.8 mph 76 % 0.00 in
20:17 70.6 °F 62.7 °F 30.08 in SSE 1.1 mph 5.8 mph 76 % 0.00 in
20:22 70.5 °F 62.9 °F 30.08 in SSE 0.9 mph 3.5 mph 77 % 0.00 in
20:27 70.4 °F 62.8 °F 30.08 in SSE 1.3 mph 4.0 mph 77 % 0.00 in
20:32 70.4 °F 63.2 °F 30.08 in SE 1.3 mph 3.5 mph 78 % 0.00 in
20:37 70.4 °F 63.2 °F 30.08 in SSW 1.3 mph 4.6 mph 78 % 0.00 in
20:42 70.3 °F 63.1 °F 30.08 in SE 1.3 mph 3.5 mph 78 % 0.00 in
20:47 70.2 °F 63.0 °F 30.08 in South 1.0 mph 2.3 mph 78 % 0.00 in
20:52 70.2 °F 63.0 °F 30.08 in SSE 1.3 mph 4.0 mph 78 % 0.00 in
20:57 70.2 °F 63.0 °F 30.08 in SSE 0.3 mph 5.8 mph 78 % 0.00 in
21:03 70.2 °F 63.4 °F 30.08 in South 1.4 mph 4.6 mph 79 % 0.00 in
21:08 70.1 °F 63.3 °F 30.08 in SSE 1.1 mph 3.5 mph 79 % 0.00 in
21:13 70.1 °F 63.3 °F 30.08 in SSE 2.2 mph 3.5 mph 79 % 0.00 in
21:18 70.1 °F 62.9 °F 30.08 in SE 0.9 mph 3.5 mph 78 % 0.00 in
21:23 70.1 °F 62.9 °F 30.09 in South 2.1 mph 6.9 mph 78 % 0.00 in
21:28 70.1 °F 62.9 °F 30.08 in SSE 1.1 mph 3.5 mph 78 % 0.00 in
21:33 70.1 °F 62.9 °F 30.08 in South 1.5 mph 3.0 mph 78 % 0.00 in
21:38 70.0 °F 62.8 °F 30.09 in SE 0.3 mph 2.0 mph 78 % 0.00 in
21:43 70.0 °F 62.8 °F 30.09 in SSE 1.2 mph 4.6 mph 78 % 0.00 in
21:54 69.9 °F 63.1 °F 30.09 in SSW 0.8 mph 2.3 mph 79 % 0.00 in
21:59 69.9 °F 63.1 °F 30.09 in SSW 0.9 mph 3.5 mph 79 % 0.00 in
22:04 69.9 °F 63.1 °F 30.09 in SW 0.9 mph 3.5 mph 79 % 0.00 in
22:09 69.8 °F 63.0 °F 30.09 in South 1.8 mph 5.8 mph 79 % 0.00 in
22:14 69.8 °F 63.3 °F 30.09 in SW 2.9 mph 4.6 mph 80 % 0.00 in
22:19 69.8 °F 63.3 °F 30.09 in SE 1.6 mph 3.5 mph 80 % 0.00 in
22:24 69.8 °F 63.3 °F 30.09 in South 1.2 mph 3.5 mph 80 % 0.00 in
22:29 69.7 °F 63.3 °F 30.09 in WSW 0.7 mph 2.3 mph 80 % 0.00 in
22:34 69.7 °F 63.6 °F 30.09 in SSW 1.5 mph 3.5 mph 81 % 0.00 in
22:39 69.7 °F 63.6 °F 30.09 in WSW 0.5 mph 3.5 mph 81 % 0.00 in
22:44 69.7 °F 63.6 °F 30.09 in WSW 1.0 mph 3.0 mph 81 % 0.00 in
22:50 69.6 °F 63.5 °F 30.09 in SSW 1.0 mph 3.5 mph 81 % 0.00 in
22:55 69.6 °F 63.5 °F 30.09 in SW 0.8 mph 2.3 mph 81 % 0.00 in
23:00 69.6 °F 63.5 °F 30.09 in SW 0.8 mph 3.5 mph 81 % 0.00 in
23:05 69.5 °F 63.4 °F 30.09 in South 2.0 mph 3.5 mph 81 % 0.00 in
23:10 69.5 °F 63.4 °F 30.10 in SSW 1.6 mph 4.6 mph 81 % 0.00 in
23:15 69.5 °F 63.4 °F 30.09 in SSW 0.7 mph 3.5 mph 81 % 0.00 in
23:20 69.5 °F 63.4 °F 30.09 in SSW 2.5 mph 7.0 mph 81 % 0.00 in
23:25 69.4 °F 63.7 °F 30.09 in SE 2.0 mph 4.6 mph 82 % 0.00 in
23:30 69.4 °F 63.7 °F 30.09 in SW 1.4 mph 3.0 mph 82 % 0.00 in
23:35 69.4 °F 63.7 °F 30.09 in SW 0.2 mph 3.5 mph 82 % 0.00 in
23:41 69.4 °F 63.7 °F 30.09 in Calm   4.0 mph 82 % 0.00 in
23:46 69.4 °F 63.6 °F 30.09 in SW 1.0 mph 4.0 mph 82 % 0.00 in
23:51 69.3 °F 63.6 °F 30.09 in SW 1.0 mph 3.0 mph 82 % 0.00 in
23:56 69.3 °F 63.9 °F 30.09 in SSW 1.0 mph 5.0 mph 83 % 0.00 in
Crab Meadow Weather
Compliments of Weather Underground - 3 mb

Script developed by  Jim McMurry - jmcmurry@mwt.net Adapted for the template by  Wim van der Kuil - Leuven-Template.eu

Weather Terms: Winter Storm Watch - Conditions are favorable for hazardous winter weather conditions including heavy snow, blizzard conditions, or significant accumulations of freezing rain or sleet. These watches are issued by the Weather Service Forecast Office in Upton and are usually issued 12 to 36 hours in advance of the event.